This is the latest recevied weather packets stored in our database for station/object KN6WGU. If no packets are shown the sender has not sent any weather packets the latest 10 day(s).
| Time | Temp. | Humidity | Pressure | Rain* | Wind** | Luminosity | Snow |
|---|---|---|---|---|---|---|---|
| 1787373429 | 22.22° C | 78% | 1008.1 hPa | 0 mm | - | 0 W/m² | - |
| 1787373126 | 22.22° C | 77% | 1008 hPa | 0 mm | - | 0 W/m² | - |
| 1787372820 | 22.22° C | 77% | 1008 hPa | 0 mm | - | 0 W/m² | - |
| 1787372516 | 21.67° C | 78% | 1008.1 hPa | 0 mm | - | 0 W/m² | - |
| 1787372212 | 21.67° C | 78% | 1008.1 hPa | 0 mm | - | 0 W/m² | - |
| 1787371909 | 21.67° C | 77% | 1008.2 hPa | 0 mm | - | 0 W/m² | - |
| 1787371604 | 21.67° C | 78% | 1008.2 hPa | 0 mm | - | 0 W/m² | - |
| 1787371299 | 21.67° C | 78% | 1008.4 hPa | 0 mm | - | 0 W/m² | - |
| 1787370998 | 21.11° C | 78% | 1008.3 hPa | 0 mm | - | 0 W/m² | - |
| 1787370695 | 21.11° C | 79% | 1008.3 hPa | 0 mm | - | 0 W/m² | - |
| 1787370394 | 21.11° C | 80% | 1008.5 hPa | 0 mm | - | 0 W/m² | - |
| 1787370090 | 20.56° C | 81% | 1008.2 hPa | 0 mm | - | 0 W/m² | - |
| 1787369785 | 20.56° C | 81% | 1008.3 hPa | 0 mm | - | 0 W/m² | - |
| 1787369483 | 20° C | 81% | 1008.2 hPa | 0 mm | - | 0 W/m² | - |
| 1787369178 | 20° C | 82% | 1008.2 hPa | 0 mm | - | 0 W/m² | - |
| 1787368874 | 20° C | 83% | 1008.2 hPa | 0 mm | - | 0 W/m² | - |
| 1787368573 | 20° C | 84% | 1008.4 hPa | 0 mm | - | 0 W/m² | - |
| 1787368269 | 20° C | 84% | 1008.6 hPa | 0 mm | - | 0 W/m² | - |
| 1787367964 | 20° C | 84% | 1008.7 hPa | 0 mm | - | 0 W/m² | - |
| 1787367661 | 20° C | 83% | 1008.6 hPa | 0 mm | - | 0 W/m² | - |
| 1787367359 | 20.56° C | 83% | 1008.7 hPa | 0 mm | - | 0 W/m² | - |
| 1787367054 | 20.56° C | 83% | 1008.6 hPa | 0 mm | - | 0 W/m² | - |
| 1787366753 | 20.56° C | 82% | 1008.7 hPa | 0 mm | - | 0 W/m² | - |
| 1787366448 | 20.56° C | 82% | 1008.8 hPa | 0 mm | - | 0 W/m² | - |
| 1787366143 | 20.56° C | 82% | 1008.8 hPa | 0 mm | - | 0 W/m² | - |
* Rain latest hour (hover to see other rain measurements)
** Current wind speed in m/s (hover to see current wind gust speed)